This is the latest recevied weather packets stored in our database for station/object W4SNA-3. If no packets are shown the sender has not sent any weather packets the latest 1 day(s).
| Time | Temp. | Humidity | Pressure | Rain* | Wind** | Luminosity | Snow |
|---|---|---|---|---|---|---|---|
| 1778017854 | 18.33° C | 51% | 1012.7 hPa | 0 mm | 0 m/s | - | - |
| 1778017590 | 18.89° C | 49% | 1012.6 hPa | 0 mm | 0 m/s | - | - |
| 1778017255 | 18.89° C | 49% | 1012.6 hPa | 0 mm | 0 m/s | - | - |
| 1778016956 | 19.44° C | 49% | 1012.6 hPa | 0 mm | 0 m/s | - | - |
| 1778016654 | 19.44° C | 51% | 1012.8 hPa | 0 mm | 0 m/s | - | - |
| 1778016074 | 19.44° C | 51% | 1012.9 hPa | 0 mm | 0 m/s | - | - |
| 1778015773 | 19.44° C | 49% | 1012.8 hPa | 0 mm | 0 m/s | - | - |
| 1778015473 | 19.44° C | 49% | 1012.7 hPa | 0 mm | 0 m/s | - | - |
| 1778015173 | 19.44° C | 48% | 1012.9 hPa | 0 mm | 0 m/s | - | - |
| 1778014585 | 20° C | 47% | 1012.7 hPa | 0 mm | 0.45 m/s, 222° | - | - |
| 1778014285 | 20° C | 49% | 1012.9 hPa | 0 mm | 0 m/s | - | - |
| 1778013985 | 20.56° C | 46% | 1012.8 hPa | 0 mm | 0 m/s | - | - |
| 1778013685 | 20.56° C | 44% | 1012.7 hPa | 0 mm | 0 m/s | - | - |
| 1778013192 | 21.67° C | 46% | 1012.8 hPa | 0 mm | 0.45 m/s, 268° | - | - |
| 1778012897 | 21.67° C | 50% | 1013 hPa | 0 mm | 0 m/s | - | - |
| 1778012592 | 21.67° C | 49% | 1012.9 hPa | 0 mm | 0 m/s | - | - |
| 1778012293 | 21.11° C | 45% | 1012.9 hPa | 0 mm | 0.45 m/s, 306° | - | - |
| 1778012066 | 21.11° C | 43% | 1012.9 hPa | 0 mm | 0 m/s | - | - |
| 1778011693 | 21.67° C | 43% | 1013 hPa | 0 mm | 0 m/s | - | - |
| 1778011406 | 21.11° C | 47% | 1013 hPa | 0 mm | 0 m/s | - | - |
| 1778011095 | 21.11° C | 44% | 1013.1 hPa | 0 mm | 0.45 m/s, 279° | - | - |
| 1778010792 | 21.11° C | 42% | 1013.1 hPa | 0 mm | 0 m/s | - | - |
| 1778010492 | 21.67° C | 43% | 1013.4 hPa | 0 mm | 0.45 m/s, 239° | - | - |
| 1778010194 | 21.67° C | 44% | 1013.2 hPa | 0 mm | 0 m/s | - | - |
| 1778009892 | 21.67° C | 43% | 1013.4 hPa | 0 mm | 0.45 m/s, 246° | - | - |
* Rain latest hour (hover to see other rain measurements)
** Current wind speed in m/s (hover to see current wind gust speed)